User: anonymous   Login
Location: Ballingbuur
(53.0000°N, 5.7667°E)
Time: 16:11:33
(UTC+00:00)
Language:

Helios 1B - Orbit

View from above orbital plane
View from above orbital plane
View from above satellite
View from above satellite

Ground track
Ground track

The orbit data is extracted from the following two-line orbital elements,

1 25977U 99064A   21174.77290113  .00000028  00000-0  10679-4 0  9990
2 25977  98.3169 349.5392 0000966 153.3314 206.7948 14.82562908430136
Epoch (UTC): 23 June 2021 18:32:58
Eccentricity: 0.0000966
inclination: 98.3169°
perigee height: 620 km
apogee height: 622 km
right ascension of ascending node: 349.5392°
argument of perigee: 153.3314°
revolutions per day: 14.82562908
mean anomaly at epoch: 206.7948°
orbit number at epoch: 43013

The dashed part of the orbit path shows where the satellite is in the earth's shadow,  

DLR